�N����,����,�~����,�C��,���x,�C��,����,���ϕ���,�ő�u�ԕ���,�ő厞����,���˗�,�I�_���x,�n�����x,�ő啗���N��,DTYPE
"23/06/10","00:10",0.0,19.7,91.0,1003.4,334.5,1.5,1.8,336.0,0.00,18.2,20.4,"00:02:08",1
"23/06/10","00:20",0.0,19.5,91.3,1002.9,316.5,1.1,1.3,332.9,0.00,18.1,20.5,"00:10:08",1
"23/06/10","00:30",0.0,19.4,91.6,1003.1,303.8,1.1,1.3,328.9,0.00,18.0,20.4,"00:20:56",1
"23/06/10","00:40",0.0,19.3,91.8,1003.4,303.6,1.2,1.8,326.7,0.00,18.0,20.2,"00:30:56",1
"23/06/10","00:50",0.0,19.3,92.0,1003.6,292.9,1.1,1.6,320.7,0.00,18.0,20.3,"00:46:40",1
"23/06/10","01:00",0.0,19.2,92.3,1003.6,302.3,1.1,1.4,321.9,0.00,18.0,20.4,"00:58:40",1
"23/06/10","01:10",0.0,19.1,92.4,1003.6,321.6,1.5,1.9,314.1,0.00,17.9,20.2,"01:03:52",1
"23/06/10","01:20",0.0,19.0,92.5,1003.4,322.6,1.5,2.0,316.7,0.00,17.8,20.2,"01:10:24",1
"23/06/10","01:30",0.0,19.0,92.7,1003.6,333.1,1.2,1.4,339.9,0.00,17.8,20.3,"01:20:40",1
"23/06/10","01:40",0.0,18.7,92.8,1003.8,312.4,0.8,1.3,323.0,0.00,17.6,20.1,"01:35:28",1
"23/06/10","01:50",0.0,18.6,93.0,1003.8,316.5,1.2,1.4,313.5,0.00,17.5,20.2,"01:42:16",1
"23/06/10","02:00",0.0,18.5,93.1,1003.8,297.5,1.1,1.6,303.6,0.00,17.4,20.2,"01:55:52",1
"23/06/10","02:10",0.0,18.4,93.3,1004.1,293.1,1.1,1.6,317.2,0.00,17.3,20.3,"02:08:48",1
"23/06/10","02:20",0.0,18.3,93.5,1004.1,322.0,1.3,2.0,318.4,0.00,17.3,20.1,"02:14:32",1
"23/06/10","02:30",0.0,18.4,93.5,1003.8,328.3,1.1,1.9,331.6,0.00,17.4,19.9,"02:27:36",1
"23/06/10","02:40",0.0,18.1,93.7,1004.1,322.3,1.1,1.2,319.7,0.00,17.1,20.1,"02:30:24",1
"23/06/10","02:50",0.0,17.9,93.8,1004.3,294.0,0.7,1.1,288.3,0.00,16.9,20.0,"02:41:36",1
"23/06/10","03:00",0.0,17.7,94.1,1004.3,316.4,1.1,1.3,306.7,0.00,16.8,20.2,"02:53:36",1
"23/06/10","03:10",0.0,17.6,94.1,1004.3,317.0,1.2,1.4,328.2,0.00,16.7,19.9,"03:00:08",1
"23/06/10","03:20",0.0,17.5,94.4,1004.5,309.5,1.1,1.6,311.9,0.00,16.6,19.8,"03:19:20",1
"23/06/10","03:30",0.0,17.7,94.5,1005.0,319.0,1.6,1.9,310.5,0.00,16.8,19.8,"03:21:12",1
"23/06/10","03:40",0.0,17.8,94.6,1004.5,306.6,1.6,2.0,309.8,0.00,17.0,19.7,"03:36:00",1
"23/06/10","03:50",0.0,17.7,94.8,1004.5,295.5,1.3,1.8,322.0,0.00,16.9,19.8,"03:49:04",1
"23/06/10","04:00",0.0,17.7,94.9,1004.5,314.1,1.5,1.8,329.4,0.00,16.9,20.0,"03:54:16",1
"23/06/10","04:10",0.0,17.6,94.9,1004.5,314.3,1.6,2.0,315.7,0.00,16.8,19.9,"04:04:08",1
"23/06/10","04:20",0.0,17.5,95.0,1004.3,314.2,1.1,1.4,317.7,0.00,16.7,19.7,"04:10:40",1
"23/06/10","04:30",0.0,17.3,95.2,1004.5,300.1,1.1,1.3,313.2,0.00,16.6,19.7,"04:24:24",1
"23/06/10","04:40",0.0,17.3,95.3,1004.5,316.2,1.3,1.9,330.4,0.00,16.6,19.6,"04:34:08",1
"23/06/10","04:50",0.0,17.3,95.4,1004.8,327.4,1.2,1.8,324.1,0.00,16.6,19.7,"04:44:32",1
"23/06/10","05:00",0.0,17.2,95.4,1004.5,313.5,1.2,1.4,329.6,0.00,16.5,19.5,"04:50:24",1
"23/06/10","05:10",0.0,17.0,95.5,1004.8,324.6,1.0,1.4,322.8,0.00,16.3,19.5,"05:05:36",1
"23/06/10","05:20",0.0,17.0,95.6,1005.2,319.9,1.2,1.4,318.5,0.00,16.3,19.6,"05:12:08",1
"23/06/10","05:30",0.0,17.0,95.7,1005.5,322.7,1.2,1.4,335.2,0.00,16.3,19.6,"05:20:48",1
"23/06/10","05:40",0.0,17.1,95.8,1005.7,304.0,1.3,1.4,324.3,0.00,16.5,19.7,"05:30:24",1
"23/06/10","05:50",0.0,17.1,95.9,1005.7,288.9,1.2,1.4,285.8,0.00,16.5,19.3,"05:44:48",1
"23/06/10","06:00",0.0,17.1,96.0,1005.5,281.0,1.1,1.4,274.1,0.00,16.5,19.5,"05:56:08",1
"23/06/10","06:10",0.0,17.3,96.0,1005.7,318.9,1.3,1.8,318.7,0.00,16.7,19.2,"06:02:56",1
"23/06/10","06:20",0.0,17.5,96.1,1006.0,327.2,1.3,1.7,332.0,0.01,16.9,19.4,"06:16:16",1
"23/06/10","06:30",0.0,17.6,96.2,1006.0,311.3,1.3,1.4,315.2,0.02,17.0,19.2,"06:22:08",1
"23/06/10","06:40",0.0,18.0,96.2,1006.0,315.8,0.7,1.1,320.8,0.04,17.4,19.4,"06:30:08",1
"23/06/10","06:50",0.0,18.3,96.2,1005.7,316.8,0.7,1.1,320.6,0.04,17.7,19.2,"06:44:32",1
"23/06/10","07:00",0.0,18.6,96.1,1005.5,314.5,0.8,1.8,334.3,0.05,18.0,19.3,"06:59:04",1
"23/06/10","07:10",0.0,18.7,96.2,1005.7,336.9,1.2,2.1,333.9,0.06,18.1,19.2,"07:02:40",1
"23/06/10","07:20",0.0,19.2,96.1,1005.7,313.6,1.2,2.0,336.6,0.07,18.6,19.4,"07:10:32",1
"23/06/10","07:30",0.0,19.5,96.2,1005.5,308.5,1.1,1.9,321.3,0.07,18.9,19.3,"07:20:24",1
"23/06/10","07:40",0.0,19.9,95.9,1005.5,299.0,1.1,1.6,316.5,0.09,19.3,19.1,"07:31:04",1
"23/06/10","07:50",0.0,20.3,95.8,1005.5,282.2,1.0,1.6,302.2,0.10,19.6,19.1,"07:40:40",1
"23/06/10","08:00",0.0,20.8,95.8,1005.7,291.9,0.8,1.7,307.6,0.12,20.1,19.4,"07:50:02",1
"23/06/10","08:10",0.0,20.8,95.4,1005.5,334.3,1.2,2.2,347.0,0.14,20.1,19.3,"08:00:56",1
"23/06/10","08:20",0.0,21.5,95.1,1006.0,295.6,0.7,1.2,306.0,0.14,20.7,19.4,"08:11:52",1
"23/06/10","08:30",0.0,21.8,94.7,1006.0,303.6,0.6,1.4,316.2,0.14,21.0,19.2,"08:20:16",1
"23/06/10","08:40",0.0,22.0,93.8,1006.0,256.4,0.2,0.8,111.1,0.17,21.0,19.2,"08:38:48",1
"23/06/10","08:50",0.0,22.1,93.8,1005.5,350.0,0.3,0.9,305.0,0.16,21.1,19.4,"08:45:12",1
"23/06/10","09:00",0.0,21.8,92.3,1005.5,293.4,1.0,1.9,307.5,0.16,20.5,19.2,"08:52:00",1
"23/06/10","09:10",0.0,22.4,91.3,1005.2,301.3,0.6,1.3,308.0,0.18,21.0,19.3,"09:01:04",1
"23/06/10","09:20",0.0,22.8,89.1,1005.2,316.3,0.6,1.4,310.1,0.20,21.0,19.3,"09:14:48",1
"23/06/10","09:30",0.0,23.8,86.1,1004.8,273.2,0.3,1.0,347.8,0.24,21.4,19.3,"09:20:08",1
"23/06/10","09:40",0.0,24.2,83.6,1004.8,223.3,0.5,1.0,230.8,0.26,21.3,19.3,"09:30:48",1
"23/06/10","09:50",0.0,25.0,81.0,1004.3,178.3,0.2,0.8,219.6,0.28,21.6,19.5,"09:42:00",1
"23/06/10","10:00",0.0,25.2,77.3,1004.1,339.5,0.8,1.8,11.1,0.27,21.0,19.7,"09:53:28",1
"23/06/10","10:10",0.0,25.5,75.0,1004.1,329.5,0.5,1.3,13.6,0.20,20.8,19.6,"10:00:56",1
"23/06/10","10:20",0.0,25.6,74.3,1004.1,104.1,0.3,1.6,123.7,0.19,20.7,19.5,"10:14:08",1
"23/06/10","10:30",0.0,25.8,73.0,1004.3,211.3,0.8,2.4,215.4,0.28,20.6,19.7,"10:26:16",1
"23/06/10","10:40",0.0,25.1,72.9,1004.1,190.3,1.3,2.4,117.8,0.16,19.9,19.8,"10:37:28",1
"23/06/10","10:50",0.0,25.3,73.5,1003.4,150.9,0.7,1.8,123.6,0.18,20.3,19.7,"10:47:36",1
"23/06/10","11:00",0.0,25.5,72.7,1003.8,116.3,0.5,1.6,110.8,0.16,20.3,19.8,"10:50:32",1
"23/06/10","11:10",0.0,25.8,72.0,1004.1,116.6,0.6,1.4,172.2,0.18,20.4,19.9,"11:05:04",1
"23/06/10","11:20",0.0,26.1,71.0,1004.1,117.3,0.6,1.7,100.2,0.18,20.5,19.8,"11:10:02",1
"23/06/10","11:30",0.0,26.2,69.8,1003.6,36.2,0.7,1.7,0.6,0.18,20.3,19.7,"11:25:36",1
"23/06/10","11:40",0.0,26.3,69.5,1003.6,86.1,0.6,1.3,110.0,0.20,20.3,20.0,"11:33:12",1
"23/06/10","11:50",0.0,26.7,68.5,1003.6,100.3,0.6,1.9,150.5,0.22,20.5,20.1,"11:43:36",1
"23/06/10","12:00",0.0,26.9,66.9,1004.1,94.3,0.6,3.4,153.8,0.20,20.3,20.0,"11:59:44",1
"23/06/10","12:10",0.0,26.4,69.3,1003.8,166.9,1.1,2.4,129.1,0.20,20.4,20.0,"12:00:32",1
"23/06/10","12:20",0.0,26.5,68.3,1003.8,98.7,0.7,1.8,132.0,0.20,20.2,20.1,"12:13:28",1
"23/06/10","12:30",0.0,27.0,67.4,1004.1,90.6,0.6,1.6,128.2,0.21,20.5,20.3,"12:25:04",1
"23/06/10","12:40",0.0,27.4,65.3,1004.1,48.8,0.7,2.0,41.6,0.24,20.4,20.2,"12:38:32",1
"23/06/10","12:50",0.0,27.8,65.7,1004.5,87.3,0.6,1.4,116.7,0.25,20.8,20.3,"12:49:28",1
"23/06/10","13:00",0.0,27.2,65.7,1004.1,144.5,1.0,2.1,144.5,0.23,20.3,20.1,"12:57:28",1
"23/06/10","13:10",0.0,27.4,65.7,1004.1,84.7,0.7,1.9,27.5,0.22,20.5,20.2,"13:01:04",1
"23/06/10","13:20",0.0,27.3,64.7,1003.8,87.7,0.8,1.9,48.5,0.19,20.1,20.3,"13:10:48",1
"23/06/10","13:30",0.0,27.1,65.0,1003.8,107.8,0.7,1.8,129.2,0.18,20.0,20.2,"13:21:52",1
"23/06/10","13:40",0.0,27.4,65.0,1004.1,95.8,0.7,1.9,137.7,0.19,20.3,20.4,"13:38:56",1
"23/06/10","13:50",0.0,27.3,65.9,1004.1,108.7,0.7,1.6,148.4,0.18,20.4,20.4,"13:40:40",1
"23/06/10","14:00",0.0,27.3,66.5,1003.8,143.6,0.8,1.9,92.7,0.17,20.6,20.3,"13:56:08",1
"23/06/10","14:10",0.0,26.5,68.6,1003.6,173.0,1.7,3.2,200.4,0.17,20.3,20.5,"14:06:24",1
"23/06/10","14:20",0.0,26.5,70.1,1003.1,159.7,1.6,3.2,180.2,0.18,20.6,20.5,"14:15:28",1
"23/06/10","14:30",0.0,26.4,70.6,1003.1,193.2,2.1,3.3,195.2,0.20,20.7,20.7,"14:22:48",1
"23/06/10","14:40",0.0,26.8,70.8,1002.9,154.2,1.5,3.1,132.7,0.20,21.1,20.7,"14:34:16",1
"23/06/10","14:50",0.0,26.6,71.3,1002.9,190.5,2.1,4.1,190.4,0.20,21.0,20.7,"14:42:48",1
"23/06/10","15:00",0.0,26.5,71.1,1002.6,163.2,1.6,3.5,233.0,0.18,20.9,20.7,"14:59:44",1
"23/06/10","15:10",0.0,26.7,71.5,1002.6,152.7,1.6,2.7,130.1,0.19,21.2,20.6,"15:02:48",1
"23/06/10","15:20",0.0,26.8,70.4,1003.1,181.3,1.5,3.7,190.6,0.20,21.0,20.5,"15:15:52",1
"23/06/10","15:30",0.0,27.1,70.0,1002.9,176.6,1.2,2.4,186.5,0.22,21.2,20.8,"15:29:36",1
"23/06/10","15:40",0.0,27.2,68.8,1003.6,176.6,1.3,2.6,223.1,0.24,21.0,20.8,"15:38:08",1
"23/06/10","15:50",0.0,27.9,68.3,1003.4,156.3,1.0,2.0,125.4,0.25,21.6,20.8,"15:47:36",1
"23/06/10","16:00",0.0,27.8,67.8,1003.4,161.4,1.5,2.9,224.2,0.26,21.3,20.8,"15:56:56",1
"23/06/10","16:10",0.0,27.8,66.9,1003.4,130.7,0.7,2.5,208.3,0.17,21.1,20.9,"16:08:48",1
"23/06/10","16:20",0.0,27.7,66.6,1003.6,228.1,1.1,2.6,208.0,0.17,21.0,20.9,"16:15:20",1
"23/06/10","16:30",0.0,27.6,66.8,1003.8,175.6,1.5,3.2,218.3,0.18,20.9,20.8,"16:25:20",1
"23/06/10","16:40",0.0,27.9,66.2,1003.4,209.0,1.2,2.7,237.0,0.22,21.1,20.9,"16:33:04",1
"23/06/10","16:50",0.0,28.0,65.3,1003.6,240.2,1.0,2.7,243.4,0.17,20.9,21.0,"16:42:00",1
"23/06/10","17:00",0.0,27.2,66.6,1003.6,203.7,1.3,2.8,225.7,0.06,20.5,20.9,"16:56:08",1
"23/06/10","17:10",0.0,26.9,68.1,1002.9,157.7,1.5,3.2,171.3,0.09,20.6,21.1,"17:09:20",1
"23/06/10","17:20",0.0,26.8,68.6,1003.1,211.5,1.3,2.6,228.2,0.10,20.6,21.0,"17:18:16",1
"23/06/10","17:30",0.0,26.9,67.0,1002.6,234.6,1.5,2.6,231.1,0.10,20.3,21.0,"17:28:48",1
"23/06/10","17:40",0.0,27.0,66.6,1002.6,230.2,1.2,2.2,206.4,0.09,20.3,21.0,"17:30:24",1
"23/06/10","17:50",0.0,26.8,66.3,1002.6,258.2,1.3,3.7,237.2,0.06,20.0,21.1,"17:46:24",1
"23/06/10","18:00",0.0,26.6,65.4,1003.8,263.8,1.5,3.1,255.0,0.05,19.6,21.2,"17:52:16",1
"23/06/10","18:10",0.0,26.4,66.2,1003.4,255.6,1.5,3.2,247.3,0.04,19.6,21.0,"18:03:04",1
"23/06/10","18:20",0.0,26.2,67.5,1003.1,238.3,1.5,2.7,213.7,0.03,19.7,21.3,"18:12:32",1
"23/06/10","18:30",0.0,25.9,68.5,1003.8,254.6,1.1,2.5,243.3,0.02,19.7,21.0,"18:20:32",1
"23/06/10","18:40",0.0,25.6,68.8,1003.8,255.9,1.1,2.8,241.9,0.01,19.5,21.2,"18:35:12",1
"23/06/10","18:50",0.0,25.5,68.3,1003.8,283.3,1.0,2.7,242.8,0.01,19.3,21.2,"18:46:00",1
"23/06/10","19:00",0.0,25.3,67.9,1003.8,301.7,1.1,2.5,311.8,0.00,19.0,21.2,"18:55:44",1
"23/06/10","19:10",0.0,25.1,68.7,1004.1,302.4,0.6,1.9,352.9,0.00,19.0,21.2,"19:00:48",1
"23/06/10","19:20",0.0,24.9,70.1,1004.3,328.2,0.7,1.9,350.0,0.00,19.1,21.0,"19:16:08",1
"23/06/10","19:30",0.0,24.6,72.2,1004.5,351.3,1.2,2.5,351.8,0.00,19.3,21.1,"19:28:24",1
"23/06/10","19:40",0.0,24.3,73.4,1004.5,348.1,1.6,3.1,350.2,0.00,19.3,21.1,"19:31:12",1
"23/06/10","19:50",0.0,24.3,73.6,1004.8,335.5,1.5,2.9,352.6,0.00,19.3,21.2,"19:40:24",1
"23/06/10","20:00",0.0,24.1,73.9,1005.5,338.5,1.5,2.7,346.9,0.00,19.2,21.0,"19:58:32",1
"23/06/10","20:10",0.0,24.0,74.4,1005.0,338.2,1.1,2.6,328.6,0.00,19.2,21.1,"20:08:32",1
"23/06/10","20:20",0.0,23.8,74.9,1004.8,338.7,1.2,2.4,338.1,0.00,19.1,21.0,"20:16:40",1
"23/06/10","20:30",0.0,23.8,75.2,1005.0,327.4,1.2,2.2,330.9,0.00,19.2,21.0,"20:28:16",1
"23/06/10","20:40",0.0,23.7,75.4,1005.0,356.6,0.7,2.2,326.7,0.00,19.1,20.9,"20:31:12",1
"23/06/10","20:50",0.0,23.5,76.0,1004.8,123.6,0.2,1.2,111.6,0.00,19.1,21.2,"20:46:48",1
"23/06/10","21:00",0.0,23.4,77.1,1004.8,316.1,1.1,1.8,330.6,0.00,19.2,20.9,"20:54:32",1
"23/06/10","21:10",0.0,23.2,78.8,1005.2,338.5,1.3,1.9,341.7,0.00,19.4,21.0,"21:04:08",1
"23/06/10","21:20",0.0,22.8,80.3,1005.0,328.2,1.3,2.5,340.9,0.00,19.3,21.1,"21:13:44",1
"23/06/10","21:30",0.0,22.7,81.4,1005.2,330.4,1.0,1.6,320.3,0.00,19.4,20.8,"21:25:44",1
"23/06/10","21:40",0.0,22.5,82.5,1005.5,303.0,1.0,1.4,342.7,0.00,19.4,20.9,"21:37:44",1
"23/06/10","21:50",0.0,22.4,83.1,1005.5,311.3,1.3,1.9,311.6,0.00,19.4,20.8,"21:42:32",1
"23/06/10","22:00",0.0,22.3,83.4,1006.0,321.6,1.8,3.1,313.5,0.00,19.4,20.9,"21:58:16",1
"23/06/10","22:10",0.0,22.4,83.3,1005.7,324.0,2.1,2.9,310.3,0.00,19.5,20.8,"22:00:08",1
"23/06/10","22:20",0.0,22.4,83.2,1006.0,321.5,1.5,2.2,337.6,0.00,19.5,21.0,"22:11:12",1
"23/06/10","22:30",0.0,22.4,83.0,1006.2,324.0,2.1,3.7,338.3,0.00,19.4,20.9,"22:29:28",1
"23/06/10","22:40",0.0,22.6,82.5,1006.0,323.3,1.7,3.3,343.9,0.00,19.5,20.8,"22:38:24",1
"23/06/10","22:50",0.0,22.6,82.3,1006.2,326.5,1.5,2.2,345.4,0.00,19.5,20.9,"22:47:04",1
"23/06/10","23:00",0.0,22.5,82.3,1006.2,317.6,0.8,1.2,335.2,0.00,19.4,20.7,"22:50:24",1
"23/06/10","23:10",0.0,22.4,82.7,1006.4,340.2,0.7,1.3,356.7,0.00,19.4,20.8,"23:08:04",1
"23/06/10","23:20",0.0,22.3,83.0,1006.0,341.3,0.5,1.1,333.4,0.00,19.3,20.8,"23:13:44",1
"23/06/10","23:30",0.0,22.2,83.8,1006.0,284.1,0.5,0.9,308.3,0.00,19.4,21.0,"23:21:36",1
"23/06/10","23:40",0.0,21.9,84.5,1006.0,267.7,0.5,1.4,320.1,0.00,19.2,20.7,"23:39:52",1
"23/06/10","23:50",0.0,21.9,85.0,1006.0,310.9,1.0,1.6,312.7,0.00,19.3,20.7,"23:41:28",1
"23/06/10","24:00",0.0,22.0,85.5,1005.7,322.2,0.6,1.3,334.1,0.00,19.5,20.7,"23:50:08",1
